Lahr, Germany

11:01 AM CET on November 15, 2019 (GMT +0100)
Lahr

Weather History for EDTL - September, 2019

Change the Weather History Date:

Monday, September 9, 2019

  Actual Average (WUND) Record (WUND)
Temperature  
Mean Temperature 58 °F -  
Max Temperature 64 °F - - (-1)
Min Temperature 51 °F - - (-1)
Degree Days  
Heating Degree Days 8    
Growing Degree Days 8 (Base 50)    
Moisture  
Dew Point 49 °F    
Average Humidity 70    
Maximum Humidity 94    
Minimum Humidity 41    
Precipitation  
Precipitation 0.00 in - - ()
Sea Level Pressure  
Sea Level Pressure 30.02 in    
Wind  
Wind Speed 5 mph ()    
Max Wind Speed 9 mph    
Max Gust Speed -    
Visibility 8.7 miles    
Events Rain    
Averages and records for this station are not official NWS values.
T = Trace of Precipitation, MM = Missing Value Source: Averaged Metar Reports

Daily Weather History Graph

Daily Weather History Graph

Search for Another Location

Airport or City:

Astronomy

Sep. 09, 2019 Rise Set
Actual Time 6:56 AM CEST 7:54 PM CEST
Civil Twilight 6:24 AM CEST 8:26 PM CEST
Nautical Twilight 5:46 AM CEST 9:04 PM CEST
Astronomical Twilight 5:05 AM CEST 9:44 PM CEST
Moon 6:00 PM CEST (9/9) 1:49 AM CEST (9/9)
Length of Visible Light 14h 01m
Length of Day
12h 58m
Waxing Gibbous, 81% of the Moon is Illuminated
Sep 9
Waxing Gibbous
Sep 14
Full
Sep 22
Last Quarter
Sep 28
New
Oct 5
First Quarter

Hourly Weather History & Observations

Time (CEST) Temp. Dew Point Humidity Pressure Visibility Wind Dir Wind Speed Gust Speed Precip Events Conditions
12:00 AM 54 °F 51 °F 86% 30.06 in 13 mi SSW 6.7 mph - - Rain Drizzle
3:00 AM 53 °F 51 °F 92% 30.05 in 11 mi SSW 4.5 mph - - Rain Drizzle
4:00 AM 53 °F 51 °F 89% 30.05 in 12 mi SSW 6.7 mph - -   Overcast
6:00 AM 53 °F 51 °F 89% 30.06 in 10 mi SW 4.5 mph - -   Overcast
7:20 AM 51.8 °F 50.0 °F 94% 30.04 in 6.2 mi South 5.8 mph - N/A   Scattered Clouds
7:50 AM 51.8 °F 50.0 °F 94% 30.04 in 6.2 mi South 4.6 mph - N/A   Mostly Cloudy
8:20 AM 53.6 °F 50.0 °F 88% 30.04 in 6.2 mi SSW 4.6 mph - N/A   Overcast
8:50 AM 53.6 °F 50.0 °F 88% 30.04 in 6.2 mi SSW 6.9 mph - N/A   Overcast
9:20 AM 53.6 °F 50.0 °F 88% 30.04 in 6.2 mi SSW 6.9 mph - N/A   Mostly Cloudy
9:50 AM 53.6 °F 50.0 °F 88% 30.04 in 6.2 mi SSW 6.9 mph - N/A   Mostly Cloudy
10:00 AM 55 °F 50 °F 76% 30.06 in 15 mi SW 6.7 mph - -   Overcast
10:20 AM 55.4 °F 50.0 °F 82% 30.06 in 6.2 mi SSW 8.1 mph - N/A   Mostly Cloudy
10:50 AM 55.4 °F 51.8 °F 88% 30.06 in 6.2 mi SSW 6.9 mph - N/A   Overcast
11:20 AM 57.2 °F 50.0 °F 77% 30.04 in 6.2 mi South 6.9 mph - N/A   Partly Cloudy
11:50 AM 59.0 °F 51.8 °F 77% 30.04 in 6.2 mi South 6.9 mph - N/A   Partly Cloudy
12:00 PM 60 °F 51 °F 63% 30.04 in 16 mi South 8.9 mph - -   Overcast
12:20 PM 59.0 °F 48.2 °F 67% 30.04 in 6.2 mi SSW 4.6 mph - N/A   Partly Cloudy
12:50 PM 60.8 °F 48.2 °F 63% 30.01 in 6.2 mi Variable 3.5 mph - N/A   Scattered Clouds
1:00 PM 60 °F 44 °F 45% 30.02 in 25 mi ESE 2.2 mph - -  
1:20 PM 60.8 °F 48.2 °F 63% 30.01 in 6.2 mi Variable 4.6 mph - N/A   Scattered Clouds
1:50 PM 60.8 °F 48.2 °F 63% 30.01 in 6.2 mi SW 6.9 mph - N/A   Scattered Clouds
2:20 PM 62.6 °F 46.4 °F 55% 30.01 in - WSW 3.5 mph - N/A   Clear
2:50 PM 64.4 °F 48.2 °F 56% 30.01 in - South 5.8 mph - N/A   Clear
3:00 PM 64 °F 46 °F 41% 30.00 in 22 mi SSW 4.5 mph - -  
3:20 PM 64.4 °F 46.4 °F 52% 29.98 in - SW 5.8 mph - N/A   Clear
3:50 PM 64.4 °F 50.0 °F 59% 29.98 in - WSW 5.8 mph - N/A   Clear
4:20 PM 64.4 °F 48.2 °F 56% 29.98 in - West 4.6 mph - N/A   Clear
4:50 PM 62.6 °F 46.4 °F 55% 29.98 in - NNW 3.5 mph - N/A   Clear
5:20 PM 62.6 °F 46.4 °F 55% 29.98 in - NE 5.8 mph - N/A   Clear
5:50 PM 62.6 °F 46.4 °F 55% 29.98 in - NE 5.8 mph - N/A   Clear
6:20 PM 62.6 °F 46.4 °F 55% 29.98 in - ENE 4.6 mph - N/A   Clear
6:50 PM 62.6 °F 46.4 °F 55% 29.98 in - ENE 4.6 mph - N/A   Clear
7:20 PM 60.8 °F 46.4 °F 59% 29.98 in - East 3.5 mph - N/A   Clear
7:50 PM 60.8 °F 46.4 °F 59% 29.98 in - ENE 3.5 mph - N/A   Clear
10:00 PM 54 °F 49 °F 78% 29.99 in 19 mi ENE 2.2 mph - -   Overcast